Weather History for NW Arkansas Airport, AR

Change the Weather History Date:

Wednesday, November 21, 2012

  Actual Average Record
Temperature  
Mean Temperature 54 °F -  
Max Temperature 71 °F - - ()
Min Temperature 36 °F - - ()
Degree Days  
Heating Degree Days 12    
Growing Degree Days 4 (Base 50)    
Moisture  
Dew Point 38 °F    
Average Humidity 66    
Maximum Humidity 100    
Minimum Humidity 27    
Precipitation  
Precipitation 0.00 in - - ()
Sea Level Pressure  
Sea Level Pressure 30.20 in    
Wind  
Wind Speed 2 mph (South)    
Max Wind Speed 9 mph    
Max Gust Speed -    
Visibility 9 miles    
Events      
T = Trace of Precipitation, MM = Missing Value Source: NWS Daily Summary

Daily Weather History Graph

Daily Weather History Graph

Search for Another Location

Airport:

Trip Planner

Search our weather history database for the weather conditions in past years. The results will help you decide how hot, cold, wet, or windy it might be!

Date:

Astronomy

Nov. 21, 2012 Rise Set
Actual Time 7:00 AM CST 5:05 PM CST
Civil Twilight 6:33 AM CST 5:33 PM CST
Nautical Twilight 6:01 AM CST 6:04 PM CST
Astronomical Twilight 5:30 AM CST 6:35 PM CST
Moon 1:12 PM CST (11/21) 12:31 AM CST (11/21)
Length of Visible Light 11h 00m
Length of Day
10h 04m
First Quarter, 62% of the Moon is Illuminated
Nov 21
First Quarter
Nov 28
Full
Dec 6
Last Quarter
Dec 13
New
Dec 19
First Quarter

Hourly Weather History & Observations

Time (CST) Temp. Dew Point Humidity Pressure Visibility Wind Dir Wind Speed Gust Speed Precip Events Conditions
12:53 AM 39.9 °F 37.9 °F 93% 30.23 in 10.0 mi Calm Calm - N/A   Clear
1:53 AM 37.9 °F 37.0 °F 97% 30.24 in 10.0 mi Calm Calm - N/A   Clear
2:53 AM 37.9 °F 37.0 °F 97% 30.25 in 10.0 mi Calm Calm - N/A   Clear
3:53 AM 37.9 °F 37.9 °F 100% 30.24 in 6.0 mi Calm Calm - N/A   Clear
4:53 AM 37.0 °F 37.0 °F 100% 30.25 in 5.0 mi Calm Calm - N/A   Clear
5:53 AM 36.0 °F 36.0 °F 100% 30.25 in 4.0 mi Calm Calm - N/A   Clear
6:53 AM 37.0 °F 36.0 °F 96% 30.26 in 5.0 mi Calm Calm - N/A   Clear
7:53 AM 37.0 °F 37.0 °F 100% 30.27 in 5.0 mi Calm Calm - N/A   Clear
8:53 AM 45.0 °F 43.0 °F 93% 30.29 in 7.0 mi Calm Calm - N/A   Clear
9:53 AM 51.1 °F 45.0 °F 80% 30.28 in 10.0 mi Calm Calm - N/A   Clear
10:53 AM 62.1 °F 42.1 °F 48% 30.26 in 10.0 mi South 4.6 mph - N/A   Clear
11:53 AM 66.0 °F 39.0 °F 37% 30.23 in 10.0 mi South 5.8 mph - N/A   Clear
12:53 PM 69.1 °F 36.0 °F 30% 30.20 in 10.0 mi South 4.6 mph - N/A   Clear
1:53 PM 71.1 °F 35.1 °F 27% 30.17 in 10.0 mi South 5.8 mph - N/A   Clear
2:53 PM 71.1 °F 36.0 °F 28% 30.15 in 10.0 mi South 6.9 mph - N/A   Clear
3:53 PM 69.1 °F 36.0 °F 30% 30.14 in 10.0 mi South 9.2 mph - N/A   Clear
4:53 PM 64.9 °F 36.0 °F 34% 30.15 in 10.0 mi SSW 5.8 mph - N/A   Clear
5:53 PM 59.0 °F 37.0 °F 44% 30.15 in 10.0 mi SSW 5.8 mph - N/A   Clear
6:53 PM 55.9 °F 37.0 °F 49% 30.15 in 10.0 mi South 8.1 mph - N/A   Clear
7:53 PM 53.1 °F 36.0 °F 52% 30.16 in 10.0 mi SSW 4.6 mph - N/A   Clear
8:53 PM 50.0 °F 36.0 °F 59% 30.15 in 10.0 mi South 5.8 mph - N/A   Clear
9:53 PM 46.9 °F 36.0 °F 66% 30.14 in 10.0 mi South 4.6 mph - N/A   Clear
10:53 PM 48.0 °F 37.0 °F 66% 30.11 in 10.0 mi South 5.8 mph - N/A   Clear
11:53 PM 46.9 °F 37.0 °F 68% 30.10 in 10.0 mi South 5.8 mph - N/A   Clear